Kearney, NE

6:30 AM CST on December 08, 2016 (GMT -0600)
Kearney Municipal

Weather History for KEAR - June, 2013

Change the Weather History Date:

Sunday, June 23, 2013

  Actual Average Record
Temperature  
Mean Temperature 71 °F 72 °F  
Max Temperature 81 °F 85 °F 104 °F (1931)
Min Temperature 61 °F 60 °F 47 °F (1989)
Degree Days  
Heating Degree Days 0 1  
Month to date heating degree days 35  
Since 1 June heating degree days 35  
Cooling Degree Days 6 8  
Month to date cooling degree days 120  
Since 1 June cooling degree days 120  
Growing Degree Days 20 (Base 50)    
Moisture  
Dew Point 63 °F    
Average Humidity 72    
Maximum Humidity 90    
Minimum Humidity 54    
Precipitation  
Precipitation 0.57 in - 1.37 in (1979)
Sea Level Pressure  
Sea Level Pressure 29.88 in    
Wind  
Wind Speed 8 mph (ENE)    
Max Wind Speed 17 mph    
Max Gust Speed 22 mph    
Visibility 9 miles    
Events Thunderstorm    
T = Trace of Precipitation, MM = Missing Value Source: NWS Daily Summary

Daily Weather History Graph

Daily Weather History Graph

Search for Another Location

Airport or City:

Trip Planner

Search our weather history database for the weather conditions in past years. The results will help you decide how hot, cold, wet, or windy it might be!

Date:

Astronomy

Jun. 23, 2013 Rise Set
Actual Time 6:05 AM CDT 9:11 PM CDT
Civil Twilight 5:32 AM CDT 9:44 PM CDT
Nautical Twilight 4:49 AM CDT 10:27 PM CDT
Astronomical Twilight 3:58 AM CDT 11:17 PM CDT
Moon 9:24 PM CDT (6/23) 6:25 AM CDT (6/23)
Length of Visible Light 16h 12m
Length of Day
15h 05m
Full, 100% of the Moon is Illuminated
Jun 23
Full
Jun 29
Last Quarter
Jul 8
New
Jul 15
First Quarter
Jul 22
Full

Hourly Weather History & Observations

Time (CDT) Temp. Heat Index Dew Point Humidity Pressure Visibility Wind Dir Wind Speed Gust Speed Precip Events Conditions
12:15 AM 80.6 °F 81.5 °F 60.8 °F 51% 29.74 in 10.0 mi SSE 17.3 mph 27.6 mph N/A   Clear
12:35 AM 78.8 °F - 60.8 °F 54% 29.75 in 10.0 mi SSE 15.0 mph 23.0 mph N/A   Clear
12:55 AM 78.8 °F - 60.8 °F 54% 29.76 in 10.0 mi SSE 9.2 mph - N/A   Clear
1:15 AM 78.8 °F - 60.8 °F 54% 29.79 in 10.0 mi NNW 11.5 mph - N/A   Partly Cloudy
1:35 AM 80.6 °F 81.5 °F 60.8 °F 51% 29.84 in 10.0 mi NNW 20.7 mph 25.3 mph N/A   Mostly Cloudy
1:55 AM 71.6 °F - 53.6 °F 53% 29.86 in 10.0 mi NNW 12.7 mph - N/A Thunderstorm Overcast
2:15 AM 66.2 °F - 57.2 °F 73% 29.89 in 9.0 mi NNW 17.3 mph 21.9 mph 0.13 in Thunderstorm Thunderstorm
2:35 AM 62.6 °F - 59.0 °F 88% 29.87 in 10.0 mi NNE 15.0 mph - 0.32 in Thunderstorm Thunderstorm
2:55 AM 62.6 °F - 59.0 °F 88% 29.87 in 10.0 mi NNE 17.3 mph 21.9 mph 0.34 in Thunderstorm Overcast
3:15 AM 62.6 °F - 59.0 °F 88% 29.90 in 10.0 mi North 13.8 mph - N/A   Overcast
3:35 AM 62.6 °F - 59.0 °F 88% 29.93 in 10.0 mi North 10.4 mph - N/A   Overcast
3:55 AM 62.6 °F - 59.0 °F 88% 29.95 in 7.0 mi NNE 8.1 mph - 0.20 in Thunderstorm Thunderstorm
4:15 AM 60.8 °F - 59.0 °F 94% 29.95 in 10.0 mi East 11.5 mph - 0.03 in Thunderstorm Thunderstorm
4:35 AM 60.8 °F - 59.0 °F 94% 29.90 in 10.0 mi East 16.1 mph - 0.03 in   Mostly Cloudy
4:55 AM 60.8 °F - 59.0 °F 94% 29.81 in 10.0 mi East 23.0 mph - 0.03 in   Scattered Clouds
5:15 AM 60.8 °F - 57.2 °F 88% 29.86 in 10.0 mi East 16.1 mph 21.9 mph N/A   Clear
5:35 AM 60.8 °F - 57.2 °F 88% 29.85 in 10.0 mi East 16.1 mph 19.6 mph N/A   Scattered Clouds
5:55 AM 60.8 °F - 57.2 °F 88% 29.83 in 10.0 mi East 16.1 mph - N/A   Partly Cloudy
6:15 AM 60.8 °F - 57.2 °F 88% 29.83 in 10.0 mi ESE 15.0 mph 21.9 mph N/A   Clear
6:35 AM 60.8 °F - 57.2 °F 88% 29.84 in 10.0 mi ESE 13.8 mph 18.4 mph N/A   Partly Cloudy
6:55 AM 60.8 °F - 57.2 °F 88% 29.85 in 10.0 mi ESE 12.7 mph - N/A   Clear
7:15 AM 60.8 °F - 57.2 °F 88% 29.84 in 10.0 mi SE 9.2 mph - N/A   Clear
7:35 AM 60.8 °F - 57.2 °F 88% 29.84 in 10.0 mi SE 6.9 mph - N/A   Clear
7:55 AM 62.6 °F - 57.2 °F 82% 29.86 in 10.0 mi SSE 5.8 mph - N/A   Clear
8:15 AM 62.6 °F - 59.0 °F 88% 29.86 in 10.0 mi SSE 8.1 mph - N/A   Clear
8:35 AM 62.6 °F - 59.0 °F 88% 29.88 in 10.0 mi SSE 5.8 mph - N/A   Clear
8:55 AM 64.4 °F - 60.8 °F 88% 29.93 in 10.0 mi North 8.1 mph - N/A   Partly Cloudy
9:15 AM 64.4 °F - 60.8 °F 88% 29.93 in 10.0 mi North 9.2 mph - N/A   Scattered Clouds
9:35 AM 66.2 °F - 60.8 °F 83% 29.94 in 10.0 mi NNE 6.9 mph - N/A   Partly Cloudy
9:55 AM 66.2 °F - 60.8 °F 83% 29.93 in 10.0 mi Calm Calm - N/A   Partly Cloudy
10:15 AM 68.0 °F - 60.8 °F 78% 29.94 in 10.0 mi ENE 8.1 mph - N/A   Partly Cloudy
10:35 AM 68.0 °F - 60.8 °F 78% 29.94 in 10.0 mi ENE 9.2 mph - N/A   Partly Cloudy
10:55 AM 69.8 °F - 62.6 °F 78% 29.93 in 10.0 mi East 8.1 mph - N/A   Clear
11:15 AM 69.8 °F - 62.6 °F 78% 29.92 in 10.0 mi East 4.6 mph - N/A   Clear
11:35 AM 71.6 °F - 62.6 °F 73% 29.93 in 10.0 mi ENE 8.1 mph - N/A   Clear
11:55 AM 73.4 °F - 62.6 °F 69% 29.93 in 10.0 mi ENE 8.1 mph - N/A   Scattered Clouds
12:15 PM 73.4 °F - 64.4 °F 73% 29.93 in 10.0 mi ENE 9.2 mph - N/A   Mostly Cloudy
12:35 PM 73.4 °F - 64.4 °F 73% 29.93 in 10.0 mi ENE 9.2 mph - N/A   Overcast
12:55 PM 73.4 °F - 64.4 °F 73% 29.94 in 10.0 mi East 9.2 mph - N/A   Overcast
1:15 PM 73.4 °F - 64.4 °F 73% 29.94 in 10.0 mi ESE 9.2 mph - N/A   Overcast
1:35 PM 73.4 °F - 64.4 °F 73% 29.93 in 10.0 mi ESE 5.8 mph - N/A   Overcast
1:55 PM 75.2 °F - 64.4 °F 69% 29.93 in 10.0 mi ESE 8.1 mph - N/A   Overcast
2:15 PM 75.2 °F - 66.2 °F 73% 29.92 in 10.0 mi East 5.8 mph - N/A   Overcast
2:35 PM 75.2 °F - 64.4 °F 69% 29.92 in 10.0 mi SSE 6.9 mph - N/A   Overcast
2:55 PM 75.2 °F - 64.4 °F 69% 29.91 in 10.0 mi East 5.8 mph - N/A   Overcast
3:15 PM 75.2 °F - 66.2 °F 73% 29.91 in 10.0 mi South 3.5 mph - N/A   Overcast
3:35 PM 77.0 °F - 66.2 °F 69% 29.90 in 10.0 mi Calm Calm - N/A   Overcast
3:55 PM 77.0 °F - 66.2 °F 69% 29.90 in 10.0 mi Calm Calm - N/A   Overcast
4:15 PM 77.0 °F - 66.2 °F 69% 29.89 in 10.0 mi NNW 4.6 mph - N/A   Scattered Clouds
4:35 PM 78.8 °F - 66.2 °F 65% 29.89 in 10.0 mi NNE 4.6 mph - N/A   Mostly Cloudy
4:55 PM 78.8 °F - 66.2 °F 65% 29.89 in 10.0 mi Calm Calm - N/A   Scattered Clouds
5:15 PM 78.8 °F - 66.2 °F 65% 29.89 in 10.0 mi NE 4.6 mph - N/A   Clear
5:35 PM 78.8 °F - 66.2 °F 65% 29.89 in 10.0 mi East 9.2 mph - N/A   Partly Cloudy
5:55 PM 78.8 °F - 66.2 °F 65% 29.89 in 10.0 mi ENE 5.8 mph - N/A   Scattered Clouds
6:15 PM 78.8 °F - 66.2 °F 65% 29.88 in 10.0 mi ENE 9.2 mph - N/A   Partly Cloudy
6:35 PM 78.8 °F - 66.2 °F 65% 29.88 in 7.0 mi ENE 8.1 mph - N/A   Clear
6:55 PM 78.8 °F - 66.2 °F 65% 29.87 in 7.0 mi ENE 8.1 mph - N/A   Clear
7:15 PM 78.8 °F - 68.0 °F 69% 29.87 in 5.0 mi ENE 9.2 mph - N/A   Partly Cloudy
7:35 PM 78.8 °F - 68.0 °F 69% 29.88 in 5.0 mi ENE 10.4 mph - N/A   Clear
7:55 PM 77.0 °F - 68.0 °F 74% 29.88 in 4.0 mi ENE 10.4 mph - N/A   Clear
8:15 PM 77.0 °F - 68.0 °F 74% 29.88 in 3.0 mi ENE 9.2 mph - N/A   Clear
8:35 PM 75.2 °F - 68.0 °F 78% 29.88 in 3.0 mi ENE 10.4 mph - N/A   Clear
8:55 PM 73.4 °F - 68.0 °F 83% 29.88 in 5.0 mi ENE 10.4 mph - N/A   Clear
9:15 PM 73.4 °F - 68.0 °F 83% 29.88 in 5.0 mi ENE 9.2 mph - N/A   Clear
9:35 PM 71.6 °F - 68.0 °F 88% 29.87 in 6.0 mi ENE 8.1 mph - N/A   Clear
9:55 PM 71.6 °F - 68.0 °F 88% 29.88 in 10.0 mi ENE 8.1 mph - N/A   Clear
10:15 PM 71.6 °F - 68.0 °F 88% 29.88 in 7.0 mi East 9.2 mph - N/A   Clear
10:35 PM 71.6 °F - 66.2 °F 83% 29.89 in 5.0 mi East 10.4 mph - N/A   Clear
10:55 PM 71.6 °F - 66.2 °F 83% 29.89 in 4.0 mi East 10.4 mph - N/A   Clear
11:15 PM 71.6 °F - 68.0 °F 88% 29.89 in 5.0 mi East 11.5 mph - N/A   Scattered Clouds
11:35 PM 69.8 °F - 66.2 °F 88% 29.88 in 5.0 mi East 11.5 mph - N/A   Mostly Cloudy
11:55 PM 69.8 °F - 68.0 °F 94% 29.88 in 9.0 mi East 12.7 mph - N/A   Clear